BOE1001 EHAM-LFPG

Flight info

Callsign BOE1001
Flight time N/A
Altitude 29000
Route KUDAD2N WOODY N872 DENOX DCT SISGA DCT DELOM DCT MOPIL MOPIL9E
Aircraft B744/H-SDE2E3FGHIJ1RWXY/LB1

Departure

Time 2026-04-27 14:09
Airport Amsterdam Airport Schiphol (EHAM)

Arrival

Time N/A
Airport Charles de Gaulle International Airport (LFPG)
Time Latitude Longitude Altitude Speed Heading
2026-04-27 13:43 52.32533 4.74528 8 ft 0 kts 94°
2026-04-27 14:01 52.32530 4.74576 7 ft 8 kts 99°
2026-04-27 14:01 52.32518 4.74623 7 ft 4 kts 136°
2026-04-27 14:01 52.32460 4.74643 7 ft 17 kts 183°
2026-04-27 14:01 52.32380 4.74597 7 ft 9 kts 219°
2026-04-27 14:02 52.32344 4.74493 7 ft 14 kts 258°
2026-04-27 14:02 52.32316 4.74390 6 ft 8 kts 228°
2026-04-27 14:02 52.32271 4.74362 5 ft 15 kts 186°
2026-04-27 14:02 52.32160 4.74345 3 ft 15 kts 181°
2026-04-27 14:03 52.32080 4.74330 3 ft 6 kts 204°
2026-04-27 14:03 52.32045 4.74280 3 ft 13 kts 243°
2026-04-27 14:03 52.32037 4.74057 4 ft 27 kts 272°
2026-04-27 14:03 52.32048 4.73727 11 ft 32 kts 274°
2026-04-27 14:04 52.32092 4.73397 11 ft 26 kts 303°
2026-04-27 14:04 52.32208 4.73190 9 ft 23 kts 318°
2026-04-27 14:04 52.32327 4.73021 6 ft 22 kts 320°
2026-04-27 14:04 52.32432 4.72876 7 ft 18 kts 319°
2026-04-27 14:05 52.32552 4.72702 7 ft 29 kts 320°
2026-04-27 14:05 52.32680 4.72509 10 ft 18 kts 314°
2026-04-27 14:05 52.32761 4.72373 9 ft 14 kts 310°
2026-04-27 14:05 52.32818 4.72264 9 ft 12 kts 310°
2026-04-27 14:06 52.32919 4.72078 7 ft 27 kts 312°
2026-04-27 14:06 52.33034 4.71868 8 ft 22 kts 311°
2026-04-27 14:06 52.33133 4.71514 9 ft 14 kts 242°
2026-04-27 14:07 52.33066 4.71409 9 ft 17 kts 222°
2026-04-27 14:07 52.32967 4.71259 7 ft 19 kts 223°
2026-04-27 14:07 52.32891 4.71122 6 ft 13 kts 248°
2026-04-27 14:07 52.32873 4.71015 6 ft 5 kts 285°
2026-04-27 14:08 52.32883 4.70970 6 ft 7 kts 292°
2026-04-27 14:08 52.32928 4.70896 6 ft 12 kts 344°
2026-04-27 14:08 52.32978 4.70892 4 ft 0 kts
2026-04-27 14:09 52.33231 4.70921 2 ft 91 kts
2026-04-27 14:09 52.34224 4.71018 84 ft 185 kts
2026-04-27 14:09 52.35655 4.71115 759 ft 223 kts
2026-04-27 14:10 52.37280 4.71148 1673 ft 249 kts
2026-04-27 14:10 52.39076 4.71276 2490 ft 265 kts
2026-04-27 14:10 52.40957 4.71452 3413 ft 276 kts
2026-04-27 14:10 52.42271 4.71595 4012 ft 297 kts
2026-04-27 14:11 52.43623 4.71748 5496 ft 275 kts